This is the latest recevied weather packets stored in our database for station/object N9XRG. If no packets are shown the sender has not sent any weather packets the latest 10 day(s).
| Time | Temp. | Humidity | Pressure | Rain* | Wind** | Luminosity | Snow |
|---|---|---|---|---|---|---|---|
| 1777420123 | 14.44° C | 76% | 1012.7 hPa | 0 mm | - | 41 W/m² | - |
| 1777419819 | 15° C | 77% | 1012.7 hPa | 0 mm | - | 46 W/m² | - |
| 1777419517 | 15° C | 75% | 1012.5 hPa | 0 mm | - | 50 W/m² | - |
| 1777419216 | 15° C | 74% | 1012.4 hPa | 0 mm | - | 56 W/m² | - |
| 1777418913 | 15° C | 74% | 1012.3 hPa | 0 mm | - | 63 W/m² | - |
| 1777418608 | 15° C | 74% | 1012.4 hPa | 0 mm | - | 64 W/m² | - |
| 1777418304 | 15° C | 74% | 1012.5 hPa | 0 mm | - | 65 W/m² | - |
| 1777418000 | 15° C | 73% | 1012.6 hPa | 0 mm | - | 73 W/m² | - |
| 1777417696 | 15° C | 73% | 1012.7 hPa | 0 mm | - | 77 W/m² | - |
| 1777417392 | 15.56° C | 73% | 1013.1 hPa | 0 mm | - | 81 W/m² | - |
| 1777417089 | 15.56° C | 72% | 1012.8 hPa | 0 mm | - | 67 W/m² | - |
| 1777416784 | 15.56° C | 72% | 1013.3 hPa | 0 mm | - | 85 W/m² | - |
| 1777416479 | 15.56° C | 70% | 1013.2 hPa | 0 mm | - | 80 W/m² | - |
| 1777416176 | 15.56° C | 71% | 1012.9 hPa | 0 mm | - | 74 W/m² | - |
| 1777415869 | 15.56° C | 73% | 1012.6 hPa | 0 mm | - | 102 W/m² | - |
| 1777415565 | 15.56° C | 70% | 1012.8 hPa | 0 mm | - | 103 W/m² | - |
| 1777415261 | 15.56° C | 71% | 1012.6 hPa | 0 mm | - | 67 W/m² | - |
| 1777414957 | 15.56° C | 70% | 1012.9 hPa | 0 mm | - | 64 W/m² | - |
| 1777414656 | 16.11° C | 69% | 1013.2 hPa | 0 mm | - | 79 W/m² | - |
| 1777414352 | 15.56° C | 70% | 1013.7 hPa | 0 mm | - | 145 W/m² | - |
| 1777414047 | 16.11° C | 70% | 1013.7 hPa | 0 mm | - | 131 W/m² | - |
| 1777413747 | 15.56° C | 70% | 1014 hPa | 0 mm | - | 174 W/m² | - |
| 1777413443 | 15.56° C | 72% | 1014.2 hPa | 0 mm | - | 191 W/m² | - |
| 1777413139 | 15.56° C | 71% | 1013.9 hPa | 0 mm | - | 234 W/m² | - |
| 1777412835 | 15° C | 73% | 1014 hPa | 0 mm | - | 220 W/m² | - |
* Rain latest hour (hover to see other rain measurements)
** Current wind speed in m/s (hover to see current wind gust speed)